WB5MTX Weather Reports


time (UTC)temp
F
wind
direction
speed
knots
gust
knots
rain 1hr
in
rain 24hr
in
rain mn
in
humidity
%
barometer
mb
20260506160107 53 0 0.0 2.6 0.00 0.04 0.04 88 1014.5
20260506154602 54 253 0.0 9.6 0.03 0.04 0.04 89 1013.9
20260506153100 54 333 0.0 11.3 0.04 0.04 0.04 91 1013.6
20260506151558 52 342 0.0 3.5 0.04 0.04 0.04 91 1014.3
20260506150101 51 0 0.0 4.3 0.03 0.03 0.03 89 1015.5
20260506144612 52 0 0.0 4.3 0.01 0.01 0.01 86 1015.5
20260506143100 52 0 0.9 9.6 0.00 0.00 0.00 84 1015.4
20260506141558 52 0 2.6 9.6 0.00 0.00 0.00 83 1014.0
20260506140113 52 0 3.5 9.6 0.00 0.00 0.00 83 1014.0
20260506134554 52 0 1.7 10.4 0.00 0.00 0.00 81 1014.8
20260506133133 53 0 1.7 7.8 0.00 0.00 0.00 80 1013.8
20260506131558 53 329 0.9 8.7 0.00 0.00 0.00 79 1013.5
20260506130136 53 0 0.0 4.3 0.00 0.00 0.00 79 1013.5
20260506124558 54 0 0.9 8.7 0.00 0.00 0.00 78 1013.0
20260506123101 54 319 0.9 4.3 0.00 0.00 0.00 76 1012.8
20260506121600 55 0 0.9 8.7 0.00 0.00 0.00 75 1012.8
20260506120104 55 341 1.7 7.0 0.00 0.00 0.00 75 1012.4
20260506114554 56 323 1.7 7.8 0.00 0.00 0.00 75 1012.4
20260506113056 56 0 0.0 5.2 0.00 0.00 0.00 75 1012.2
20260506111554 56 0 0.9 7.8 0.00 0.00 0.00 76 1011.7
20260506110053 57 360 0.9 7.0 0.00 0.00 0.00 76 1011.5
20260506104603 57 360 0.0 8.7 0.00 0.00 0.00 76 1011.5
20260506103055 57 0 0.0 7.8 0.00 0.00 0.00 75 1011.2
20260506101552 57 327 0.0 8.7 0.00 0.00 0.00 76 1010.7
20260506100106 57 0 0.9 5.2 0.00 0.00 0.00 75 1010.5
20260506094601 57 0 0.0 7.0 0.00 0.00 0.00 76 1010.4
20260506093054 57 0 1.7 8.7 0.00 0.00 0.00 76 1010.3
20260506091552 58 0 0.0 7.8 0.00 0.00 0.00 76 1010.3
20260506090054 58 0 0.9 6.1 0.00 0.00 0.00 76 1010.3
20260506084554 58 0 0.0 7.8 0.00 0.00 0.00 77 1010.0
20260506083055 58 0 0.0 7.0 0.00 0.00 0.00 77 1009.8
20260506081605 58 311 0.9 7.8 0.00 0.00 0.00 77 1009.7
20260506073057 60 0 0.0 3.5 0.00 0.00 0.00 78 1009.4
20260506071553 60 0 0.0 0.0 0.00 0.00 0.00 77 1009.4
20260506061553 61 352 0.0 4.3 0.00 0.00 0.00 77 1009.4
20260506060107 61 0 0.9 4.3 0.00 0.00 0.00 76 1009.3
20260506044554 64 0 0.0 3.5 0.00 0.00 0.00 74 1009.4
20260506043056 65 0 0.0 7.8 0.00 0.00 0.00 74 1009.0
20260506041558 65 331 1.7 9.6 0.00 0.00 0.00 74 1009.2
20260506040055 66 345 2.6 12.2 0.00 0.00 0.00 72 1009.3
20260506034612 67 324 2.6 8.7 0.00 0.00 0.00 72 1009.0
20260506033055 67 0 0.9 8.7 0.00 0.00 0.00 71 1008.6
20260506031555 68 0 0.0 5.2 0.00 0.00 0.00 69 1008.2
20260506030054 68 0 0.0 5.2 0.00 0.00 0.00 69 1007.7
20260506024556 69 0 0.0 7.8 0.00 0.00 0.00 69 1007.6
20260506023101 69 0 0.0 4.3 0.00 0.00 0.00 68 1007.3
20260506021553 70 343 0.9 5.2 0.00 0.00 0.00 69 1007.3
20260506020054 71 0 1.7 9.6 0.00 0.00 0.00 68 1006.9
20260506014554 72 0 0.9 7.0 0.00 0.00 0.00 67 1006.5
20260506013106 72 0 0.0 7.0 0.00 0.00 0.00 67 1006.0
20260506011558 73 0 0.9 6.1 0.00 0.00 0.00 65 1005.7
20260506010108 74 0 0.0 5.2 0.00 0.00 0.00 65 1005.6
20260506004552 75 0 0.9 9.6 0.00 0.00 0.00 64 1005.4
20260506003056 76 309 0.0 5.2 0.00 0.00 0.00 61 1005.1
20260506001601 77 0 0.0 2.6 0.00 0.00 0.00 60 1005.2
20260506000056 78 0 0.0 9.6 0.00 0.00 0.00 59 1005.3
20260505234552 79 0 0.0 9.6 0.00 0.00 0.00 58 1004.8
20260505233104 80 319 2.6 8.7 0.00 0.00 0.00 58 1004.6
20260505231553 82 330 1.7 11.3 0.00 0.00 0.00 58 1004.4
20260505230057 85 319 0.9 9.6 0.00 0.00 0.00 52 1004.2
20260505224559 86 0 1.7 8.7 0.00 0.00 0.00 48 1004.2
20260505223055 87 327 1.7 8.7 0.00 0.00 0.00 46 1003.9
20260505221556 92 0 0.0 2.6 0.00 0.00 0.00 43 1003.8
20260505214633 91 269 0.0 4.3 0.00 0.00 0.00 45 1003.7
20260505213116 92 0 1.7 6.1 0.00 0.00 0.00 43 1003.7
20260505211556 92 0 0.0 7.8 0.00 0.00 0.00 42 1003.7
20260505210055 93 0 0.9 7.0 0.00 0.00 0.00 41 1004.0
20260505204556 93 0 0.0 6.1 0.00 0.00 0.00 45 1004.2
20260505203056 91 267 0.9 6.1 0.00 0.00 0.00 44 1004.3
20260505201559 90 266 3.5 9.6 0.00 0.00 0.00 48 1004.5
20260505200056 91 296 0.9 7.0 0.00 0.00 0.00 50 1004.5
20260505194553 90 240 1.7 8.7 0.00 0.00 0.00 49 1004.6
20260505193053 89 0 1.7 12.2 0.00 0.00 0.00 50 1004.7
20260505191605 88 278 2.6 10.4 0.00 0.00 0.00 51 1004.8
20260505184551 86 225 2.6 13.0 0.00 0.00 0.00 56 1004.8
20260505183114 86 292 0.9 9.6 0.00 0.00 0.00 61 1005.0
20260505181553 84 223 2.6 13.0 0.00 0.00 0.00 61 1005.2
20260505180057 84 242 2.6 12.2 0.00 0.00 0.00 65 1005.2
20260505174609 83 0 0.0 7.0 0.00 0.00 0.00 68 1005.2
20260505173054 82 0 3.5 12.2 0.00 0.00 0.00 69 1005.3
20260505171558 80 189 1.7 13.0 0.00 0.00 0.00 70 1005.3
20260505170058 80 0 1.7 13.0 0.00 0.00 0.00 71 1005.2
20260505164557 80 0 1.7 10.4 0.00 0.00 0.00 71 1005.3
20260505163053 79 215 5.2 13.9 0.00 0.00 0.00 71 1005.1
20260505161621 78 0 2.6 13.9 0.00 0.00 0.00 74 1004.8